Year,Month,Day,Hour,Minute,Value (Times are PST for temperature in C)
2018,08,11,00,00,19.40
2018,08,11,00,01,19.40
2018,08,11,00,02,19.30
2018,08,11,00,03,19.30
2018,08,11,00,04,19.30
2018,08,11,00,05,19.20
2018,08,11,00,06,19.20
2018,08,11,00,07,19.10
2018,08,11,00,08,19.10
2018,08,11,00,09,19.10
2018,08,11,00,10,19.10
2018,08,11,00,11,19.00
2018,08,11,00,12,19.00
2018,08,11,00,13,18.90
2018,08,11,00,14,18.90
2018,08,11,00,15,18.90
2018,08,11,00,16,18.90
2018,08,11,00,17,18.80
2018,08,11,00,18,18.80
2018,08,11,00,19,18.80
2018,08,11,00,20,18.90
2018,08,11,00,21,18.90
2018,08,11,00,22,18.90
2018,08,11,00,23,18.90
2018,08,11,00,24,18.90
2018,08,11,00,25,18.90
2018,08,11,00,26,18.90
2018,08,11,00,27,18.90
2018,08,11,00,28,18.90
2018,08,11,00,29,18.90
2018,08,11,00,30,18.80
2018,08,11,00,31,18.80
2018,08,11,00,32,18.80
2018,08,11,00,33,18.80
2018,08,11,00,34,18.80
2018,08,11,00,35,18.80
2018,08,11,00,36,18.80
2018,08,11,00,37,18.80
2018,08,11,00,38,18.70
2018,08,11,00,39,18.70
2018,08,11,00,40,18.80
2018,08,11,00,41,18.80
2018,08,11,00,42,18.80
2018,08,11,00,43,18.90
2018,08,11,00,44,19.00
2018,08,11,00,45,19.10
2018,08,11,00,46,19.10
2018,08,11,00,47,19.20
2018,08,11,00,48,19.20
2018,08,11,00,49,19.30
2018,08,11,00,50,19.30
2018,08,11,00,51,19.40
2018,08,11,00,52,19.40
2018,08,11,00,53,19.40
2018,08,11,00,54,19.40
2018,08,11,00,55,19.40
2018,08,11,00,56,19.50
2018,08,11,00,57,19.50
2018,08,11,00,58,19.40
2018,08,11,00,59,19.40
2018,08,11,01,00,19.30
2018,08,11,01,01,19.30
2018,08,11,01,02,19.30
2018,08,11,01,03,19.20
2018,08,11,01,04,19.20
2018,08,11,01,05,19.20
2018,08,11,01,06,19.20
2018,08,11,01,07,19.20
2018,08,11,01,08,19.20
2018,08,11,01,09,19.20
2018,08,11,01,10,19.10
2018,08,11,01,11,19.10
2018,08,11,01,12,19.10
2018,08,11,01,13,19.10
2018,08,11,01,14,19.10
2018,08,11,01,15,19.10
2018,08,11,01,16,19.10
2018,08,11,01,17,19.10
2018,08,11,01,18,19.10
2018,08,11,01,19,19.10
2018,08,11,01,20,19.10
2018,08,11,01,21,19.10
2018,08,11,01,22,19.00
2018,08,11,01,23,19.10
2018,08,11,01,24,19.10
2018,08,11,01,25,19.20
2018,08,11,01,26,19.20
2018,08,11,01,27,19.20
2018,08,11,01,28,19.10
2018,08,11,01,29,19.10
2018,08,11,01,30,19.00
2018,08,11,01,31,18.90
2018,08,11,01,32,18.80
2018,08,11,01,33,18.80
2018,08,11,01,34,18.70
2018,08,11,01,35,18.70
2018,08,11,01,36,18.60
2018,08,11,01,37,18.60
2018,08,11,01,38,18.50
2018,08,11,01,39,18.50
2018,08,11,01,40,18.40
2018,08,11,01,41,18.50
2018,08,11,01,42,18.50
2018,08,11,01,43,18.60
2018,08,11,01,44,18.60
2018,08,11,01,45,18.60
2018,08,11,01,46,18.60
2018,08,11,01,47,18.60
2018,08,11,01,48,18.60
2018,08,11,01,49,18.60
2018,08,11,01,50,18.50
2018,08,11,01,51,18.50
2018,08,11,01,52,18.50
2018,08,11,01,53,18.50
2018,08,11,01,54,18.40
2018,08,11,01,55,18.40
2018,08,11,01,56,18.40
2018,08,11,01,57,18.40
2018,08,11,01,58,18.40
2018,08,11,01,59,18.40
2018,08,11,02,00,18.40
2018,08,11,02,01,18.40
2018,08,11,02,02,18.40
2018,08,11,02,03,18.30
2018,08,11,02,04,18.30
2018,08,11,02,05,18.30
2018,08,11,02,06,18.30
2018,08,11,02,07,18.30
2018,08,11,02,08,18.30
2018,08,11,02,09,18.30
2018,08,11,02,10,18.30
2018,08,11,02,11,18.30
2018,08,11,02,12,18.30
2018,08,11,02,13,18.30
2018,08,11,02,14,18.30
2018,08,11,02,15,18.40
2018,08,11,02,16,18.40
2018,08,11,02,17,18.40
2018,08,11,02,18,18.40
2018,08,11,02,19,18.40
2018,08,11,02,20,18.30
2018,08,11,02,21,18.30
2018,08,11,02,22,18.30
2018,08,11,02,23,18.30
2018,08,11,02,24,18.30
2018,08,11,02,25,18.20
2018,08,11,02,26,18.20
2018,08,11,02,27,18.20
2018,08,11,02,28,18.20
2018,08,11,02,29,18.20
2018,08,11,02,30,18.20
2018,08,11,02,31,18.20
2018,08,11,02,32,18.10
2018,08,11,02,33,18.10
2018,08,11,02,34,18.10
2018,08,11,02,35,18.10
2018,08,11,02,36,18.10
2018,08,11,02,37,18.10
2018,08,11,02,38,18.10
2018,08,11,02,39,18.00
2018,08,11,02,40,18.00
2018,08,11,02,41,18.00
2018,08,11,02,42,18.00
2018,08,11,02,43,17.90
2018,08,11,02,44,17.90
2018,08,11,02,45,17.90
2018,08,11,02,46,17.90
2018,08,11,02,47,17.90
2018,08,11,02,48,17.90
2018,08,11,02,49,17.90
2018,08,11,02,50,17.90
2018,08,11,02,51,17.80
2018,08,11,02,52,17.80
2018,08,11,02,53,17.80
2018,08,11,02,54,17.80
2018,08,11,02,55,17.80
2018,08,11,02,56,17.80
2018,08,11,02,57,17.70
2018,08,11,02,58,17.70
2018,08,11,02,59,17.70
2018,08,11,03,00,17.70
2018,08,11,03,01,17.70
2018,08,11,03,02,17.70
2018,08,11,03,03,17.60
2018,08,11,03,04,17.60
2018,08,11,03,05,17.60
2018,08,11,03,06,17.60
2018,08,11,03,07,17.60
2018,08,11,03,08,17.60
2018,08,11,03,09,17.60
2018,08,11,03,10,17.60
2018,08,11,03,11,17.60
2018,08,11,03,12,17.60
2018,08,11,03,13,17.60
2018,08,11,03,14,17.60
2018,08,11,03,15,17.60
2018,08,11,03,16,17.60
2018,08,11,03,17,17.60
2018,08,11,03,18,17.60
2018,08,11,03,19,17.60
2018,08,11,03,20,17.60
2018,08,11,03,21,17.60
2018,08,11,03,22,17.60
2018,08,11,03,23,17.70
2018,08,11,03,24,17.70
2018,08,11,03,25,17.70
2018,08,11,03,26,17.80
2018,08,11,03,27,17.80
2018,08,11,03,28,17.80
2018,08,11,03,29,17.80
2018,08,11,03,30,17.80
2018,08,11,03,31,17.80
2018,08,11,03,32,17.80
2018,08,11,03,33,17.80
2018,08,11,03,34,17.90
2018,08,11,03,35,17.80
2018,08,11,03,36,17.80
2018,08,11,03,37,17.80
2018,08,11,03,38,17.80
2018,08,11,03,39,17.80
2018,08,11,03,40,17.80
2018,08,11,03,41,17.80
2018,08,11,03,42,17.80
2018,08,11,03,43,17.80
2018,08,11,03,44,17.80
2018,08,11,03,45,17.80
2018,08,11,03,46,17.80
2018,08,11,03,47,17.80
2018,08,11,03,48,17.80
2018,08,11,03,49,17.80
2018,08,11,03,50,17.80
2018,08,11,03,51,17.80
2018,08,11,03,52,17.80
2018,08,11,03,53,17.80
2018,08,11,03,54,17.70
2018,08,11,03,55,17.70
2018,08,11,03,56,17.70
2018,08,11,03,57,17.70
2018,08,11,03,58,17.70
2018,08,11,03,59,17.70
2018,08,11,04,00,17.70
2018,08,11,04,01,17.70
2018,08,11,04,02,17.70
2018,08,11,04,03,17.70
2018,08,11,04,04,17.70
2018,08,11,04,05,17.70
2018,08,11,04,06,17.70
2018,08,11,04,07,17.70
2018,08,11,04,08,17.70
2018,08,11,04,09,17.60
2018,08,11,04,10,17.60
2018,08,11,04,11,17.60
2018,08,11,04,12,17.60
2018,08,11,04,13,17.60
2018,08,11,04,14,17.60
2018,08,11,04,15,17.60
2018,08,11,04,16,17.50
2018,08,11,04,17,17.50
2018,08,11,04,18,17.50
2018,08,11,04,19,17.40
2018,08,11,04,20,17.40
2018,08,11,04,21,17.40
2018,08,11,04,22,17.40
2018,08,11,04,23,17.40
2018,08,11,04,24,17.30
2018,08,11,04,25,17.30
2018,08,11,04,26,17.30
2018,08,11,04,27,17.30
2018,08,11,04,28,17.20
2018,08,11,04,29,17.20
2018,08,11,04,30,17.20
2018,08,11,04,31,17.20
2018,08,11,04,32,17.20
2018,08,11,04,33,17.20
2018,08,11,04,34,17.10
2018,08,11,04,35,17.10
2018,08,11,04,36,17.10
2018,08,11,04,37,17.10
2018,08,11,04,38,17.10
2018,08,11,04,39,17.10
2018,08,11,04,40,17.10
2018,08,11,04,41,17.10
2018,08,11,04,42,17.10
2018,08,11,04,43,17.10
2018,08,11,04,44,17.00
2018,08,11,04,45,17.00
2018,08,11,04,46,17.00
2018,08,11,04,47,17.00
2018,08,11,04,48,16.90
2018,08,11,04,49,16.90
2018,08,11,04,50,16.90
2018,08,11,04,51,16.90
2018,08,11,04,52,16.80
2018,08,11,04,53,16.80
2018,08,11,04,54,16.80
2018,08,11,04,55,16.80
2018,08,11,04,56,16.80
2018,08,11,04,57,16.70
2018,08,11,04,58,16.70
2018,08,11,04,59,16.70
2018,08,11,05,00,16.70
2018,08,11,05,01,16.70
2018,08,11,05,02,16.70
2018,08,11,05,03,16.70
2018,08,11,05,04,16.70
2018,08,11,05,05,16.60
2018,08,11,05,06,16.60
2018,08,11,05,07,16.60
2018,08,11,05,08,16.60
2018,08,11,05,09,16.60
2018,08,11,05,10,16.60
2018,08,11,05,11,16.60
2018,08,11,05,12,16.60
2018,08,11,05,13,16.60
2018,08,11,05,14,16.70
2018,08,11,05,15,16.70
2018,08,11,05,16,16.70
2018,08,11,05,17,16.70
2018,08,11,05,18,16.70
2018,08,11,05,19,16.70
2018,08,11,05,20,16.70
2018,08,11,05,21,16.80
2018,08,11,05,22,16.80
2018,08,11,05,23,16.80
2018,08,11,05,24,16.80
2018,08,11,05,25,16.80
2018,08,11,05,26,16.80
2018,08,11,05,27,16.80
2018,08,11,05,28,16.80
2018,08,11,05,29,16.80
2018,08,11,05,30,16.80
2018,08,11,05,31,16.80
2018,08,11,05,32,16.80
2018,08,11,05,33,16.80
2018,08,11,05,34,16.80
2018,08,11,05,35,16.80
2018,08,11,05,36,16.80
2018,08,11,05,37,16.80
2018,08,11,05,38,16.80
2018,08,11,05,39,16.80
2018,08,11,05,40,16.80
2018,08,11,05,41,16.80
2018,08,11,05,42,16.90
2018,08,11,05,43,16.90
2018,08,11,05,44,16.90
2018,08,11,05,45,16.90
2018,08,11,05,46,16.90
2018,08,11,05,47,16.90
2018,08,11,05,48,16.90
2018,08,11,05,49,17.00
2018,08,11,05,50,17.00
2018,08,11,05,51,17.00
2018,08,11,05,52,17.00
2018,08,11,05,53,17.00
2018,08,11,05,54,17.10
2018,08,11,05,55,17.10
2018,08,11,05,56,17.10
2018,08,11,05,57,17.10
2018,08,11,05,58,17.10
2018,08,11,05,59,17.10
2018,08,11,06,00,17.10
2018,08,11,06,01,17.20
2018,08,11,06,02,17.20
2018,08,11,06,03,17.20
2018,08,11,06,04,17.20
2018,08,11,06,05,17.20
2018,08,11,06,06,17.20
2018,08,11,06,07,17.20
2018,08,11,06,08,17.20
2018,08,11,06,09,17.20
2018,08,11,06,10,17.30
2018,08,11,06,11,17.30
2018,08,11,06,12,17.30
2018,08,11,06,13,17.30
2018,08,11,06,14,17.30
2018,08,11,06,15,17.30
2018,08,11,06,16,17.30
2018,08,11,06,17,17.30
2018,08,11,06,18,17.30
2018,08,11,06,19,17.30
2018,08,11,06,20,17.30
2018,08,11,06,21,17.30
2018,08,11,06,22,17.30
2018,08,11,06,23,17.30
2018,08,11,06,24,17.40
2018,08,11,06,25,17.40
2018,08,11,06,26,17.40
2018,08,11,06,27,17.40
2018,08,11,06,28,17.40
2018,08,11,06,29,17.40
2018,08,11,06,30,17.40
2018,08,11,06,31,17.40
2018,08,11,06,32,17.40
2018,08,11,06,33,17.40
2018,08,11,06,34,17.40
2018,08,11,06,35,17.40
2018,08,11,06,36,17.40
2018,08,11,06,37,17.40
2018,08,11,06,38,17.40
2018,08,11,06,39,17.50
2018,08,11,06,40,17.50
2018,08,11,06,41,17.50
2018,08,11,06,42,17.50
2018,08,11,06,43,17.50
2018,08,11,06,44,17.60
2018,08,11,06,45,17.60
2018,08,11,06,46,17.60
2018,08,11,06,47,17.60
2018,08,11,06,48,17.60
2018,08,11,06,49,17.70
2018,08,11,06,50,17.70
2018,08,11,06,51,17.70
2018,08,11,06,52,17.70
2018,08,11,06,53,17.80
2018,08,11,06,54,17.80
2018,08,11,06,55,17.80
2018,08,11,06,56,17.80
2018,08,11,06,57,17.90
2018,08,11,06,58,17.90
2018,08,11,06,59,17.90
2018,08,11,07,00,18.00
2018,08,11,07,01,18.00
2018,08,11,07,02,18.00
2018,08,11,07,03,18.10
2018,08,11,07,04,18.10
2018,08,11,07,05,18.10
2018,08,11,07,06,18.10
2018,08,11,07,07,18.20
2018,08,11,07,08,18.20
2018,08,11,07,09,18.20
2018,08,11,07,10,18.30
2018,08,11,07,11,18.30
2018,08,11,07,12,18.30
2018,08,11,07,13,18.30
2018,08,11,07,14,18.40
2018,08,11,07,15,18.40
2018,08,11,07,16,18.40
2018,08,11,07,17,18.40
2018,08,11,07,18,18.40
2018,08,11,07,19,18.50
2018,08,11,07,20,18.50
2018,08,11,07,21,18.50
2018,08,11,07,22,18.50
2018,08,11,07,23,18.50
2018,08,11,07,24,18.50
2018,08,11,07,25,18.50
2018,08,11,07,26,18.60
2018,08,11,07,27,18.60
2018,08,11,07,28,18.60
2018,08,11,07,29,18.60
2018,08,11,07,30,18.60
2018,08,11,07,31,18.60
2018,08,11,07,32,18.60
2018,08,11,07,33,18.70
2018,08,11,07,34,18.70
2018,08,11,07,35,18.70
2018,08,11,07,36,18.70
2018,08,11,07,37,18.70
2018,08,11,07,38,18.70
2018,08,11,07,39,18.70
2018,08,11,07,40,18.70
2018,08,11,07,41,18.70
2018,08,11,07,42,18.70
2018,08,11,07,43,18.70
2018,08,11,07,44,18.70
2018,08,11,07,45,18.70
2018,08,11,07,46,18.70
2018,08,11,07,47,18.70
2018,08,11,07,48,18.70
2018,08,11,07,49,18.80
2018,08,11,07,50,18.80
2018,08,11,07,51,18.80
2018,08,11,07,52,18.80
2018,08,11,07,53,18.80
2018,08,11,07,54,18.80
2018,08,11,07,55,18.80
2018,08,11,07,56,18.80
2018,08,11,07,57,18.80
2018,08,11,07,58,18.80
2018,08,11,07,59,18.80
2018,08,11,08,00,18.80
2018,08,11,08,01,18.80
2018,08,11,08,02,18.80
2018,08,11,08,03,18.80
2018,08,11,08,04,18.80
2018,08,11,08,05,18.80
2018,08,11,08,06,18.80
2018,08,11,08,07,18.80
2018,08,11,08,08,18.80
2018,08,11,08,09,18.80
2018,08,11,08,10,18.70
2018,08,11,08,11,18.70
2018,08,11,08,12,18.70
2018,08,11,08,13,18.70
2018,08,11,08,14,18.70
2018,08,11,08,15,18.70
2018,08,11,08,16,18.60
2018,08,11,08,17,18.60
2018,08,11,08,18,18.60
2018,08,11,08,19,18.60
2018,08,11,08,20,18.60
2018,08,11,08,21,18.60
2018,08,11,08,22,18.50
2018,08,11,08,23,18.50
2018,08,11,08,24,18.50
2018,08,11,08,25,18.40
2018,08,11,08,26,18.40
2018,08,11,08,27,18.40
2018,08,11,08,28,18.40
2018,08,11,08,29,18.40
2018,08,11,08,30,18.40
2018,08,11,08,31,18.40
2018,08,11,08,32,18.40
2018,08,11,08,33,18.40
2018,08,11,08,34,18.50
2018,08,11,08,35,18.50
2018,08,11,08,36,18.50
2018,08,11,08,37,18.50
2018,08,11,08,38,18.60
2018,08,11,08,39,18.60
2018,08,11,08,40,18.60
2018,08,11,08,41,18.60
2018,08,11,08,42,18.70
2018,08,11,08,43,18.70
2018,08,11,08,44,18.80
2018,08,11,08,45,18.80
2018,08,11,08,46,18.90
2018,08,11,08,47,18.90
2018,08,11,08,48,19.00
2018,08,11,08,49,19.00
2018,08,11,08,50,19.10
2018,08,11,08,51,19.10
2018,08,11,08,52,19.10
2018,08,11,08,53,19.10
2018,08,11,08,54,19.20
2018,08,11,08,55,19.20
2018,08,11,08,56,19.20
2018,08,11,08,57,19.30
2018,08,11,08,58,19.40
2018,08,11,08,59,19.40
2018,08,11,09,00,19.50
2018,08,11,09,01,19.50
2018,08,11,09,02,19.60
2018,08,11,09,03,19.60
2018,08,11,09,04,19.70
2018,08,11,09,05,19.70
2018,08,11,09,06,19.80
2018,08,11,09,07,19.80
2018,08,11,09,08,19.90
2018,08,11,09,09,19.90
2018,08,11,09,10,19.90
2018,08,11,09,11,20.00
2018,08,11,09,12,20.00
2018,08,11,09,13,20.10
2018,08,11,09,14,20.10
2018,08,11,09,15,20.20
2018,08,11,09,16,20.20
2018,08,11,09,17,20.30
2018,08,11,09,18,20.30
2018,08,11,09,19,20.40
2018,08,11,09,20,20.50
2018,08,11,09,21,20.70
2018,08,11,09,22,20.80
2018,08,11,09,23,20.90
2018,08,11,09,24,21.10
2018,08,11,09,25,21.20
2018,08,11,09,26,21.20
2018,08,11,09,27,21.30
2018,08,11,09,28,21.30
2018,08,11,09,29,21.20
2018,08,11,09,30,21.20
2018,08,11,09,31,21.20
2018,08,11,09,32,21.20
2018,08,11,09,33,21.20
2018,08,11,09,34,21.20
2018,08,11,09,35,21.20
2018,08,11,09,36,21.30
2018,08,11,09,37,21.30
2018,08,11,09,38,21.30
2018,08,11,09,39,21.30
2018,08,11,09,40,21.30
2018,08,11,09,41,21.20
2018,08,11,09,42,21.20
2018,08,11,09,43,21.20
2018,08,11,09,44,21.10
2018,08,11,09,45,21.10
2018,08,11,09,46,21.00
2018,08,11,09,47,21.00
2018,08,11,09,48,20.90
2018,08,11,09,49,20.80
2018,08,11,09,50,20.80
2018,08,11,09,51,20.70
2018,08,11,09,52,20.70
2018,08,11,09,53,20.70
2018,08,11,09,54,20.70
2018,08,11,09,55,20.70
2018,08,11,09,56,20.80
2018,08,11,09,57,20.80
2018,08,11,09,58,20.80
2018,08,11,09,59,20.90
2018,08,11,10,00,21.00
2018,08,11,10,01,21.10
2018,08,11,10,02,21.10
2018,08,11,10,03,21.10
2018,08,11,10,04,21.10
2018,08,11,10,05,21.10
2018,08,11,10,06,21.10
2018,08,11,10,07,21.10
2018,08,11,10,08,21.10
2018,08,11,10,09,21.10
2018,08,11,10,10,21.10
2018,08,11,10,11,21.10
2018,08,11,10,12,21.20
2018,08,11,10,13,21.20
2018,08,11,10,14,21.30
2018,08,11,10,15,21.40
2018,08,11,10,16,21.60
2018,08,11,10,17,21.70
2018,08,11,10,18,21.70
2018,08,11,10,19,21.80
2018,08,11,10,20,21.80
2018,08,11,10,21,21.80
2018,08,11,10,22,21.70
2018,08,11,10,23,21.70
2018,08,11,10,24,21.60
2018,08,11,10,25,21.50
2018,08,11,10,26,21.50
2018,08,11,10,27,21.40
2018,08,11,10,28,21.30
2018,08,11,10,29,21.30
2018,08,11,10,30,21.20
2018,08,11,10,31,21.10
2018,08,11,10,32,21.10
2018,08,11,10,33,21.00
2018,08,11,10,34,20.90
2018,08,11,10,35,21.00
2018,08,11,10,36,21.00
2018,08,11,10,37,21.00
2018,08,11,10,38,21.10
2018,08,11,10,39,21.10
2018,08,11,10,40,21.10
2018,08,11,10,41,21.00
2018,08,11,10,42,21.00
2018,08,11,10,43,21.00
2018,08,11,10,44,20.90
2018,08,11,10,45,20.80
2018,08,11,10,46,20.70
2018,08,11,10,47,20.70
2018,08,11,10,48,20.70
2018,08,11,10,49,20.70
2018,08,11,10,50,20.70
2018,08,11,10,51,20.80
2018,08,11,10,52,20.80
2018,08,11,10,53,20.90
2018,08,11,10,54,20.80
2018,08,11,10,55,20.80
2018,08,11,10,56,20.90
2018,08,11,10,57,20.90
2018,08,11,10,58,20.90
2018,08,11,10,59,20.80
2018,08,11,11,00,20.80
2018,08,11,11,01,20.90
2018,08,11,11,02,20.90
2018,08,11,11,03,20.90
2018,08,11,11,04,21.00
2018,08,11,11,05,21.00
2018,08,11,11,06,21.10
2018,08,11,11,07,21.20
2018,08,11,11,08,21.20
2018,08,11,11,09,21.30
2018,08,11,11,10,21.20
2018,08,11,11,11,21.20
2018,08,11,11,12,21.20
2018,08,11,11,13,21.10
2018,08,11,11,14,21.10
2018,08,11,11,15,21.10
2018,08,11,11,16,21.10
2018,08,11,11,17,21.10
2018,08,11,11,18,21.10
2018,08,11,11,19,21.10
2018,08,11,11,20,21.10
2018,08,11,11,21,21.00
2018,08,11,11,22,21.00
2018,08,11,11,23,20.90
2018,08,11,11,24,20.80
2018,08,11,11,25,20.80
2018,08,11,11,26,20.70
2018,08,11,11,27,20.70
2018,08,11,11,28,20.70
2018,08,11,11,29,20.70
2018,08,11,11,30,20.60
2018,08,11,11,31,20.60
2018,08,11,11,32,20.50
2018,08,11,11,33,20.50
2018,08,11,11,34,20.40
2018,08,11,11,35,20.40
2018,08,11,11,36,20.30
2018,08,11,11,37,20.30
2018,08,11,11,38,20.30
2018,08,11,11,39,20.30
2018,08,11,11,40,20.20
2018,08,11,11,41,20.30
2018,08,11,11,42,20.30
2018,08,11,11,43,20.30
2018,08,11,11,44,20.30
2018,08,11,11,45,20.30
2018,08,11,11,46,20.30
2018,08,11,11,47,20.20
2018,08,11,11,48,20.20
2018,08,11,11,49,20.30
2018,08,11,11,50,20.30
2018,08,11,11,51,20.30
2018,08,11,11,52,20.30
2018,08,11,11,53,20.30
2018,08,11,11,54,20.30
2018,08,11,11,55,20.30
2018,08,11,11,56,20.30
2018,08,11,11,57,20.40
2018,08,11,11,58,20.40
2018,08,11,11,59,20.40
2018,08,11,12,00,20.40
2018,08,11,12,01,20.30
2018,08,11,12,02,20.30
2018,08,11,12,03,20.30
2018,08,11,12,04,20.30
2018,08,11,12,05,20.20
2018,08,11,12,06,20.20
2018,08,11,12,07,20.20
2018,08,11,12,08,20.20
2018,08,11,12,09,20.20
2018,08,11,12,10,20.30
2018,08,11,12,11,20.40
2018,08,11,12,12,20.50
2018,08,11,12,13,20.50
2018,08,11,12,14,20.50
2018,08,11,12,15,20.60
2018,08,11,12,16,20.60
2018,08,11,12,17,20.60
2018,08,11,12,18,20.60
2018,08,11,12,19,20.60
2018,08,11,12,20,20.50
2018,08,11,12,21,20.50
2018,08,11,12,22,20.50
2018,08,11,12,23,20.50
2018,08,11,12,24,20.40
2018,08,11,12,25,20.40
2018,08,11,12,26,20.30
2018,08,11,12,27,20.30
2018,08,11,12,28,20.30
2018,08,11,12,29,20.20
2018,08,11,12,30,20.20
2018,08,11,12,31,20.10
2018,08,11,12,32,20.10
2018,08,11,12,33,20.10
2018,08,11,12,34,20.10
2018,08,11,12,35,20.00
2018,08,11,12,36,20.00
2018,08,11,12,37,20.00
2018,08,11,12,38,20.00
2018,08,11,12,39,20.00
2018,08,11,12,40,19.90
2018,08,11,12,41,19.90
2018,08,11,12,42,19.90
2018,08,11,12,43,19.90
2018,08,11,12,44,19.90
2018,08,11,12,45,19.90
2018,08,11,12,46,19.90
2018,08,11,12,47,19.90
2018,08,11,12,48,19.90
2018,08,11,12,49,20.00
2018,08,11,12,50,20.00
2018,08,11,12,51,20.00
2018,08,11,12,52,20.00
2018,08,11,12,53,20.10
2018,08,11,12,54,20.10
2018,08,11,12,55,20.10
2018,08,11,12,56,20.10
2018,08,11,12,57,20.10
2018,08,11,12,58,20.20
2018,08,11,12,59,20.20
2018,08,11,13,00,20.20
2018,08,11,13,01,20.30
2018,08,11,13,02,20.30
2018,08,11,13,03,20.30
2018,08,11,13,04,20.40
2018,08,11,13,05,20.40
2018,08,11,13,06,20.30
2018,08,11,13,07,20.30
2018,08,11,13,08,20.40
2018,08,11,13,09,20.40
2018,08,11,13,10,20.40
2018,08,11,13,11,20.40
2018,08,11,13,12,20.40
2018,08,11,13,13,20.40
2018,08,11,13,14,20.50
2018,08,11,13,15,20.50
2018,08,11,13,16,20.60
2018,08,11,13,17,20.70
2018,08,11,13,18,20.70
2018,08,11,13,19,20.70
2018,08,11,13,20,20.70
2018,08,11,13,21,20.80
2018,08,11,13,22,20.80
2018,08,11,13,23,20.80
2018,08,11,13,24,20.80
2018,08,11,13,25,20.70
2018,08,11,13,26,20.70
2018,08,11,13,27,20.60
2018,08,11,13,28,20.60
2018,08,11,13,29,20.50
2018,08,11,13,30,20.50
2018,08,11,13,31,20.40
2018,08,11,13,32,20.40
2018,08,11,13,33,20.30
2018,08,11,13,34,20.30
2018,08,11,13,35,20.30
2018,08,11,13,36,20.30
2018,08,11,13,37,20.30
2018,08,11,13,38,20.30
2018,08,11,13,39,20.30
2018,08,11,13,40,20.30
2018,08,11,13,41,20.30
2018,08,11,13,42,20.30
2018,08,11,13,43,20.30
2018,08,11,13,44,20.30
2018,08,11,13,45,20.30
2018,08,11,13,46,20.30
2018,08,11,13,47,20.40
2018,08,11,13,48,20.30
2018,08,11,13,49,20.30
2018,08,11,13,50,20.30
2018,08,11,13,51,20.20
2018,08,11,13,52,20.20
2018,08,11,13,53,20.20
2018,08,11,13,54,20.10
2018,08,11,13,55,20.10
2018,08,11,13,56,20.20
2018,08,11,13,57,20.30
2018,08,11,13,58,20.30
2018,08,11,13,59,20.40
2018,08,11,14,00,20.50
2018,08,11,14,01,20.60
2018,08,11,14,02,20.80
2018,08,11,14,03,20.90
2018,08,11,14,04,21.00
2018,08,11,14,05,21.20
2018,08,11,14,06,21.40
2018,08,11,14,07,21.40
2018,08,11,14,08,21.40
2018,08,11,14,09,21.40
2018,08,11,14,10,21.40
2018,08,11,14,11,21.50
2018,08,11,14,12,21.60
2018,08,11,14,13,21.70
2018,08,11,14,14,21.90
2018,08,11,14,15,21.90
2018,08,11,14,16,22.00
2018,08,11,14,17,22.00
2018,08,11,14,18,22.10
2018,08,11,14,19,22.10
2018,08,11,14,20,22.10
2018,08,11,14,21,22.10
2018,08,11,14,22,22.10
2018,08,11,14,23,22.10
2018,08,11,14,24,22.20
2018,08,11,14,25,22.10
2018,08,11,14,26,22.10
2018,08,11,14,27,22.00
2018,08,11,14,28,22.00
2018,08,11,14,29,22.00
2018,08,11,14,30,22.00
2018,08,11,14,31,22.00
2018,08,11,14,32,22.00
2018,08,11,14,33,22.10
2018,08,11,14,34,22.10
2018,08,11,14,35,22.20
2018,08,11,14,36,22.20
2018,08,11,14,37,22.30
2018,08,11,14,38,22.40
2018,08,11,14,39,22.50
2018,08,11,14,40,22.50
2018,08,11,14,41,22.60
2018,08,11,14,42,22.70
2018,08,11,14,43,22.70
2018,08,11,14,44,22.70
2018,08,11,14,45,22.70
2018,08,11,14,46,22.70
2018,08,11,14,47,22.70
2018,08,11,14,48,22.60
2018,08,11,14,49,22.60
2018,08,11,14,50,22.50
2018,08,11,14,51,22.40
2018,08,11,14,52,22.40
2018,08,11,14,53,22.30
2018,08,11,14,54,22.30
2018,08,11,14,55,22.50
2018,08,11,14,56,22.70
2018,08,11,14,57,22.70
2018,08,11,14,58,22.70
2018,08,11,14,59,22.50
2018,08,11,15,00,22.40
2018,08,11,15,01,22.30
2018,08,11,15,02,22.10
2018,08,11,15,03,22.00
2018,08,11,15,04,21.90
2018,08,11,15,05,21.80
2018,08,11,15,06,21.80
2018,08,11,15,07,21.80
2018,08,11,15,08,21.80
2018,08,11,15,09,21.90
2018,08,11,15,10,22.00
2018,08,11,15,11,21.90
2018,08,11,15,12,21.90
2018,08,11,15,13,21.90
2018,08,11,15,14,22.00
2018,08,11,15,15,22.00
2018,08,11,15,16,22.00
2018,08,11,15,17,21.90
2018,08,11,15,18,21.70
2018,08,11,15,19,21.60
2018,08,11,15,20,21.40
2018,08,11,15,21,21.30
2018,08,11,15,22,21.20
2018,08,11,15,23,21.20
2018,08,11,15,24,21.10
2018,08,11,15,25,21.10
2018,08,11,15,26,21.10
2018,08,11,15,27,21.10
2018,08,11,15,28,21.00
2018,08,11,15,29,21.10
2018,08,11,15,30,21.00
2018,08,11,15,31,21.00
2018,08,11,15,32,21.00
2018,08,11,15,33,21.10
2018,08,11,15,34,21.10
2018,08,11,15,35,21.10
2018,08,11,15,36,21.10
2018,08,11,15,37,21.10
2018,08,11,15,38,21.10
2018,08,11,15,39,21.10
2018,08,11,15,40,21.10
2018,08,11,15,41,21.10
2018,08,11,15,42,21.10
2018,08,11,15,43,21.10
2018,08,11,15,44,21.20
2018,08,11,15,45,21.30
2018,08,11,15,46,21.40
2018,08,11,15,47,21.60
2018,08,11,15,48,21.70
2018,08,11,15,49,21.80
2018,08,11,15,50,21.80
2018,08,11,15,51,21.80
2018,08,11,15,52,21.80
2018,08,11,15,53,21.80
2018,08,11,15,54,21.80
2018,08,11,15,55,21.80
2018,08,11,15,56,21.70
2018,08,11,15,57,21.70
2018,08,11,15,58,21.60
2018,08,11,15,59,21.60
2018,08,11,16,00,21.60
2018,08,11,16,01,21.60
2018,08,11,16,02,21.60
2018,08,11,16,03,21.70
2018,08,11,16,04,21.70
2018,08,11,16,05,21.80
2018,08,11,16,06,21.90
2018,08,11,16,07,22.00
2018,08,11,16,08,22.10
2018,08,11,16,09,22.20
2018,08,11,16,10,22.30
2018,08,11,16,11,22.30
2018,08,11,16,12,22.40
2018,08,11,16,13,22.40
2018,08,11,16,14,22.40
2018,08,11,16,15,22.40
2018,08,11,16,16,22.40
2018,08,11,16,17,22.40
2018,08,11,16,18,22.40
2018,08,11,16,19,22.40
2018,08,11,16,20,22.40
2018,08,11,16,21,22.40
2018,08,11,16,22,22.40
2018,08,11,16,23,22.40
2018,08,11,16,24,22.40
2018,08,11,16,25,22.30
2018,08,11,16,26,22.30
2018,08,11,16,27,22.30
2018,08,11,16,28,22.20
2018,08,11,16,29,22.20
2018,08,11,16,30,22.20
2018,08,11,16,31,22.20
2018,08,11,16,32,22.20
2018,08,11,16,33,22.20
2018,08,11,16,34,22.20
2018,08,11,16,35,22.20
2018,08,11,16,36,22.20
2018,08,11,16,37,22.20
2018,08,11,16,38,22.20
2018,08,11,16,39,22.20
2018,08,11,16,40,22.20
2018,08,11,16,41,22.30
2018,08,11,16,42,22.30
2018,08,11,16,43,22.30
2018,08,11,16,44,22.30
2018,08,11,16,45,22.30
2018,08,11,16,46,22.30
2018,08,11,16,47,22.40
2018,08,11,16,48,22.40
2018,08,11,16,49,22.50
2018,08,11,16,50,22.50
2018,08,11,16,51,22.50
2018,08,11,16,52,22.40
2018,08,11,16,53,22.30
2018,08,11,16,54,22.30
2018,08,11,16,55,22.20
2018,08,11,16,56,22.20
2018,08,11,16,57,22.20
2018,08,11,16,58,22.10
2018,08,11,16,59,22.00
2018,08,11,17,00,21.90
2018,08,11,17,01,21.80
2018,08,11,17,02,21.70
2018,08,11,17,03,21.60
2018,08,11,17,04,21.40
2018,08,11,17,05,21.30
2018,08,11,17,06,21.30
2018,08,11,17,07,21.30
2018,08,11,17,08,21.20
2018,08,11,17,09,21.20
2018,08,11,17,10,21.20
2018,08,11,17,11,21.30
2018,08,11,17,12,21.30
2018,08,11,17,13,21.40
2018,08,11,17,14,21.40
2018,08,11,17,15,21.40
2018,08,11,17,16,21.40
2018,08,11,17,17,21.40
2018,08,11,17,18,21.40
2018,08,11,17,19,21.40